[ hide orbit diagram ]
For accurate long-term ephemerides, please instead use our Horizons system.This orbit viewer was implemented using two-body methods, and hence should not be used for determining accurate long-term trajectories (over several years or decades) or planetary encounter circumstances.
Orbital Elements at Epoch 2459000.5 (2020-May-31.0) TDB
Reference: JPL 12 (heliocentric ecliptic J2000)
Element | Value | Uncertainty (1-sigma) | Units |
e | .1719867498650858 | 4.7544e-08 | |
a | 2.992146619806621 | 2.9905e-08 | au |
q | 2.477537047546277 | 1.4957e-07 | au |
i | 2.811238041080883 | 6.0597e-06 | deg |
node | 59.13171274779306 | 0.00010926 | deg |
peri | 272.4555722251009 | 0.00011095 | deg |
M | 309.457426785066 | 2.1311e-05 | deg |
tp | 2459265.916294219805 (2021-Feb-20.41629422) | 0.00011445 | TDB |
period | 1890.482811644763 5.18 | 2.8342e-05 7.76e-08 | d yr |
n | .1904275446370188 | 2.8549e-09 | deg/d |
Q | 3.506756192066964 | 3.5049e-08 | au |
|
| | Orbit Determination Parameters
Additional Information
|
[ show covariance matrix ]
Physical Parameter Table
Parameter |
Symbol |
Value |
Units |
Sigma |
Reference |
Notes |
absolute magnitude |
H |
15.9 |
|
n/a |
MPO437026 |
|
|
214419 (2005 PZ15) Discovered 2005-Aug-04 by NEAT at Palomar |
Reference: 20090509/Numbers.arc | Last Updated: 2009-05-11 |
|
[ show close-approach data ]
|